Weather in Andenes

Norway     69°18′51″N   16°07′05″E
temp.,
°C
wind,
m/s
gust,
m/s
humid.,
%
clouds,
%
prec.,
mm/h
press.,
hPa
HPBL,
m
21 june, mon
mon2123:00+9nne5683100 0.0 1015389
02:00+9ne7888100 0.0 1013335
05:00+9ne6788100 0.0 1011252
08:00+9ne4484100 0.1 100999
11:00+9nne5687100 1.0 1007125
14:00+10ne4493100 1.9 100667
17:00+10sse4495100 0.4 100681
20:00+10wsw5695100 0.8 1007140
22 june, tue
tue2223:00+9wsw5695100 0.2 1008157
02:00+9w4594100 0.3 1009125
05:00+9nnw4496100 2.7 1010254
08:00+9n5695100 5.8 1011351
11:00+9nnw6695100 5.3 1014367
14:00+9nnw559098 8.7 1017386
17:00+9n44825 0.3 1019454
20:00+9nne33800 0.3 1019379
23 june, wed
wed2323:00+9ne55815 0.0 1020399
02:00+9ne78815 0.0 1019397
05:00+9ene7780100 0.0 1018407
08:00+9e4477100 0.0 1018303
11:00+9ese2275100 0.0 101783
14:00+10sw1175100 0.0 101814
17:00+10wnw2275100 0.0 101837
20:00+10sw228099 0.0 101863
24 june, thu
thu2423:00+11s3376100 0.1 101837
02:00+10sse6979100 0.1 1017184
05:00+10sse7108337 0.3 1016240
08:00+10ssw69835 0.7 1016221
11:00+11sw71079100 0.4 1017211
14:00+10wsw7118499 0.7 1018317
17:00+10wsw7986100 0.0 1019332
20:00+10wsw6885100 0.0 1019270
25 june, fri
fri2523:00+10w6882100 0.1 1019186
02:00+10wsw4579100 0.2 102078
05:00+10sw3378100 0.2 102033
08:00+10ssw2278100 0.3 102124
11:00+10ssw22775 0.0 102117
14:00+11nw11746 0.0 102114
17:00+11ne33705 0.0 1020113
20:00+11ne4473100 0.0 101973